BOX118 EDDP-EBBR

Flight info

Callsign BOX118
Flight time 0h 52m
Altitude 34000
Route ORTAG5E ORTAG Q230 KUMER DCT WRB DCT ABAMI Z717 NEREL/N0435F240 T855 AGENI/N0400F180 T855 BATTY
Aircraft B77L/H-SDE1E2E3FGHIJ2J3J4J5M1RWXY/LB1D1

Departure

Time 2026-05-07 18:17
Airport Leipzig/Halle Airport (EDDP)

Arrival

Time 2026-05-07 19:10
Airport Brussels Airport (EBBR)
Time Latitude Longitude Altitude Speed Heading
2026-05-07 17:20 51.40983 12.24818 471 ft 0 kts 85°
2026-05-07 17:58 51.40982 12.24808 473 ft 4 kts 84°
2026-05-07 17:59 51.40978 12.24766 469 ft 4 kts 72°
2026-05-07 17:59 51.40967 12.24727 465 ft 4 kts 56°
2026-05-07 17:59 51.40950 12.24694 464 ft 4 kts 36°
2026-05-07 17:59 51.40927 12.24674 465 ft 4 kts 15°
2026-05-07 18:00 51.40900 12.24667 468 ft 4 kts 360°
2026-05-07 18:00 51.40880 12.24669 467 ft 0 kts 355°
2026-05-07 18:04 51.40883 12.24668 467 ft 4 kts 355°
2026-05-07 18:04 51.40957 12.24659 468 ft 12 kts 355°
2026-05-07 18:04 51.41041 12.24648 471 ft 12 kts 354°
2026-05-07 18:05 51.41119 12.24590 465 ft 13 kts 336°
2026-05-07 18:05 51.41178 12.24495 468 ft 13 kts 274°
2026-05-07 18:05 51.41171 12.24349 467 ft 14 kts 264°
2026-05-07 18:05 51.41163 12.24185 469 ft 15 kts 266°
2026-05-07 18:06 51.41157 12.24020 471 ft 15 kts 266°
2026-05-07 18:06 51.41147 12.23851 468 ft 15 kts 265°
2026-05-07 18:06 51.41139 12.23679 473 ft 15 kts 266°
2026-05-07 18:06 51.41132 12.23510 469 ft 15 kts 266°
2026-05-07 18:07 51.41124 12.23337 474 ft 16 kts 265°
2026-05-07 18:07 51.41115 12.23162 469 ft 16 kts 265°
2026-05-07 18:07 51.41106 12.22982 469 ft 17 kts 266°
2026-05-07 18:07 51.41097 12.22770 464 ft 20 kts 266°
2026-05-07 18:08 51.41087 12.22540 461 ft 21 kts 266°
2026-05-07 18:08 51.41076 12.22307 460 ft 21 kts 265°
2026-05-07 18:08 51.41065 12.22079 461 ft 21 kts 265°
2026-05-07 18:08 51.41054 12.21850 462 ft 21 kts 265°
2026-05-07 18:09 51.41042 12.21618 461 ft 21 kts 265°
2026-05-07 18:09 51.41031 12.21388 456 ft 21 kts 265°
2026-05-07 18:09 51.41021 12.21156 452 ft 21 kts 265°
2026-05-07 18:09 51.41010 12.20908 444 ft 23 kts 266°
2026-05-07 18:10 51.40998 12.20675 433 ft 15 kts 266°
2026-05-07 18:10 51.40996 12.20619 433 ft 0 kts 266°
2026-05-07 18:12 51.40995 12.20614 434 ft 3 kts 266°
2026-05-07 18:13 51.40998 12.20537 431 ft 8 kts 283°
2026-05-07 18:13 51.41019 12.20493 427 ft 3 kts 325°
2026-05-07 18:13 51.41032 12.20487 430 ft 0 kts 349°
2026-05-07 18:14 51.41035 12.20486 430 ft 2 kts 351°
2026-05-07 18:14 51.41057 12.20487 428 ft 4 kts
2026-05-07 18:14 51.41115 12.20506 443 ft 6 kts 12°
2026-05-07 18:14 51.41154 12.20531 438 ft 6 kts 39°
2026-05-07 18:15 51.41164 12.20571 437 ft 0 kts 79°
2026-05-07 18:16 51.41168 12.20610 434 ft 15 kts 83°
2026-05-07 18:16 51.41189 12.21037 450 ft 69 kts 85°
2026-05-07 18:17 51.41242 12.22167 460 ft 133 kts 86°
2026-05-07 18:17 51.41330 12.23893 493 ft 177 kts 85°
2026-05-07 18:17 51.41406 12.25882 957 ft 179 kts 86°
2026-05-07 18:17 51.41485 12.27828 1647 ft 176 kts 84°
2026-05-07 18:18 51.41586 12.29814 2288 ft 182 kts 83°
2026-05-07 18:18 51.41696 12.31961 2535 ft 206 kts 84°
2026-05-07 18:18 51.41817 12.34368 2797 ft 231 kts 84°
2026-05-07 18:18 51.41951 12.37044 3251 ft 248 kts 84°
2026-05-07 18:19 51.42380 12.39739 3879 ft 254 kts 58°
2026-05-07 18:19 51.43600 12.41756 4679 ft 257 kts 30°
2026-05-07 18:19 51.45306 12.42643 5498 ft 261 kts
2026-05-07 18:19 51.46826 12.42443 6121 ft 264 kts 347°
2026-05-07 18:20 51.48622 12.41650 6773 ft 271 kts 345°
2026-05-07 18:20 51.50427 12.40859 7568 ft 273 kts 346°
2026-05-07 18:20 51.52283 12.40057 8416 ft 274 kts 346°
2026-05-07 18:20 51.54134 12.39263 9242 ft 277 kts 346°
2026-05-07 18:21 51.55901 12.38106 9858 ft 283 kts 323°
2026-05-07 18:21 51.57204 12.35689 10422 ft 293 kts 298°
2026-05-07 18:21 51.57968 12.32535 10647 ft 317 kts 289°
2026-05-07 18:21 51.58653 12.29041 10831 ft 342 kts 285°
2026-05-07 18:22 51.58953 12.25111 11115 ft 364 kts 270°
2026-05-07 18:22 51.58900 12.22382 11545 ft 372 kts 268°
2026-05-07 18:22 51.58710 12.16735 12679 ft 381 kts 268°
2026-05-07 18:22 51.58557 12.12436 13669 ft 385 kts 268°
2026-05-07 18:23 51.58413 12.08138 14510 ft 391 kts 268°
2026-05-07 18:23 51.58276 12.03722 15352 ft 396 kts 268°
2026-05-07 18:23 51.58155 11.99605 16130 ft 400 kts 268°
2026-05-07 18:23 51.58029 11.95142 16962 ft 404 kts 268°
2026-05-07 18:24 51.57905 11.90612 17779 ft 409 kts 268°
2026-05-07 18:24 51.57778 11.85997 18563 ft 414 kts 268°
2026-05-07 18:24 51.57650 11.81317 19285 ft 418 kts 268°
2026-05-07 18:24 51.57521 11.76678 20024 ft 421 kts 268°
2026-05-07 18:25 51.57387 11.71930 20765 ft 425 kts 268°
2026-05-07 18:25 51.57251 11.67178 21471 ft 429 kts 268°
2026-05-07 18:25 51.57111 11.62349 22173 ft 432 kts 268°
2026-05-07 18:25 51.56969 11.57547 22988 ft 433 kts 268°
2026-05-07 18:26 51.56823 11.52656 23681 ft 438 kts 268°
2026-05-07 18:26 51.56675 11.47777 24212 ft 442 kts 268°
2026-05-07 18:26 51.56522 11.42808 24793 ft 446 kts 268°
2026-05-07 18:26 51.56366 11.37802 25383 ft 449 kts 268°
2026-05-07 18:27 51.56207 11.32778 25973 ft 451 kts 268°
2026-05-07 18:27 51.56047 11.27778 26525 ft 455 kts 268°
2026-05-07 18:27 51.55881 11.22652 27053 ft 459 kts 268°
2026-05-07 18:27 51.55769 11.19238 27108 ft 462 kts 268°
2026-05-07 18:28 51.55541 11.12397 27094 ft 459 kts 267°
2026-05-07 18:28 51.55367 11.07266 27083 ft 456 kts 267°
2026-05-07 18:28 51.55193 11.02171 27083 ft 455 kts 267°
2026-05-07 18:28 51.55029 10.97418 27094 ft 455 kts 267°
2026-05-07 18:29 51.54852 10.92367 27089 ft 456 kts 267°
2026-05-07 18:29 51.54671 10.87253 27087 ft 456 kts 267°
2026-05-07 18:29 51.54487 10.82143 27081 ft 456 kts 267°
2026-05-07 18:29 51.54303 10.77076 27082 ft 457 kts 266°
2026-05-07 18:30 51.54118 10.72022 27085 ft 457 kts 266°
2026-05-07 18:30 51.53928 10.66893 27089 ft 458 kts 266°
2026-05-07 18:30 51.53743 10.61834 27096 ft 458 kts 267°
2026-05-07 18:30 51.53621 10.56683 27092 ft 458 kts 268°
2026-05-07 18:31 51.53548 10.51558 27093 ft 458 kts 269°
2026-05-07 18:31 51.53489 10.46482 27090 ft 458 kts 269°
2026-05-07 18:31 51.53428 10.41338 27090 ft 458 kts 269°
2026-05-07 18:31 51.53359 10.36217 27089 ft 458 kts 269°
2026-05-07 18:32 51.53308 10.32822 27085 ft 458 kts 269°
2026-05-07 18:32 51.53195 10.26005 27087 ft 458 kts 268°
2026-05-07 18:32 51.53136 10.22607 27089 ft 458 kts 268°
2026-05-07 18:32 51.53042 10.17475 27086 ft 458 kts 268°
2026-05-07 18:33 51.52946 10.12365 27083 ft 458 kts 268°
2026-05-07 18:33 51.52847 10.07235 27084 ft 458 kts 268°
2026-05-07 18:33 51.52748 10.02174 27093 ft 458 kts 268°
2026-05-07 18:33 51.52653 9.97399 27094 ft 458 kts 268°
2026-05-07 18:34 51.52548 9.92235 27095 ft 459 kts 268°
2026-05-07 18:34 51.52441 9.87097 27092 ft 459 kts 268°
2026-05-07 18:34 51.52333 9.82029 27095 ft 459 kts 268°
2026-05-07 18:34 51.52222 9.76893 27099 ft 459 kts 268°
2026-05-07 18:35 51.52109 9.71759 27100 ft 459 kts 268°
2026-05-07 18:35 51.51994 9.66661 27144 ft 462 kts 268°
2026-05-07 18:35 51.51874 9.61452 27668 ft 464 kts 268°
2026-05-07 18:35 51.51754 9.56319 28280 ft 466 kts 268°
2026-05-07 18:36 51.51629 9.51070 28820 ft 469 kts 268°
2026-05-07 18:36 51.51502 9.45853 29259 ft 473 kts 268°
2026-05-07 18:36 51.51372 9.40582 29706 ft 476 kts 268°
2026-05-07 18:36 51.51237 9.35238 30249 ft 476 kts 268°
2026-05-07 18:37 51.51102 9.29981 30817 ft 474 kts 268°
2026-05-07 18:37 51.50964 9.24663 31378 ft 473 kts 268°
2026-05-07 18:37 51.50825 9.19383 31890 ft 472 kts 268°
2026-05-07 18:37 51.50684 9.14138 32367 ft 472 kts 268°
2026-05-07 18:38 51.50535 9.08859 32852 ft 472 kts 267°
2026-05-07 18:38 51.50356 9.03634 33337 ft 471 kts 267°
2026-05-07 18:38 51.50196 8.99417 33732 ft 470 kts 267°
2026-05-07 18:38 51.49991 8.94216 34133 ft 471 kts 266°
2026-05-07 18:39 51.49780 8.88916 34085 ft 476 kts 266°
2026-05-07 18:39 51.49362 8.78408 34089 ft 471 kts 266°
2026-05-07 18:40 51.48945 8.67952 34102 ft 468 kts 266°
2026-05-07 18:40 51.48524 8.57565 34098 ft 465 kts 266°
2026-05-07 18:41 51.48101 8.47356 33973 ft 449 kts 266°
2026-05-07 18:41 51.47686 8.37533 33836 ft 433 kts 266°
2026-05-07 18:42 51.47278 8.28083 33662 ft 420 kts 266°
2026-05-07 18:42 51.47073 8.23393 33438 ft 417 kts 266°
2026-05-07 18:42 51.46871 8.18797 33122 ft 416 kts 266°
2026-05-07 18:42 51.46663 8.14123 32792 ft 416 kts 266°
2026-05-07 18:43 51.46458 8.09551 32434 ft 416 kts 266°
2026-05-07 18:43 51.46248 8.04921 32043 ft 417 kts 266°
2026-05-07 18:43 51.46035 8.00257 31652 ft 418 kts 266°
2026-05-07 18:43 51.45833 7.95903 31301 ft 419 kts 265°
2026-05-07 18:44 51.45420 7.91321 30921 ft 419 kts 257°
2026-05-07 18:44 51.44651 7.86782 30551 ft 420 kts 252°
2026-05-07 18:44 51.43581 7.82408 30164 ft 421 kts 248°
2026-05-07 18:44 51.42425 7.78125 29728 ft 422 kts 247°
2026-05-07 18:45 51.41232 7.73777 29269 ft 423 kts 247°
2026-05-07 18:45 51.40060 7.69512 28824 ft 423 kts 247°
2026-05-07 18:45 51.38878 7.65193 28433 ft 423 kts 246°
2026-05-07 18:45 51.37697 7.60861 28062 ft 422 kts 247°
2026-05-07 18:46 51.36520 7.56528 27614 ft 423 kts 247°
2026-05-07 18:46 51.35358 7.52249 27138 ft 424 kts 247°
2026-05-07 18:46 51.34177 7.47898 26769 ft 423 kts 247°
2026-05-07 18:46 51.33017 7.43633 26483 ft 420 kts 247°
2026-05-07 18:47 51.31852 7.39354 26209 ft 417 kts 247°
2026-05-07 18:47 51.30688 7.35088 25920 ft 415 kts 247°
2026-05-07 18:47 51.29546 7.30913 25610 ft 414 kts 246°
2026-05-07 18:47 51.28393 7.26702 25312 ft 412 kts 246°
2026-05-07 18:48 51.27240 7.22500 24992 ft 410 kts 246°
2026-05-07 18:48 51.26091 7.18321 24711 ft 409 kts 246°
2026-05-07 18:48 51.24944 7.14156 24450 ft 407 kts 246°
2026-05-07 18:48 51.23820 7.10083 24204 ft 404 kts 246°
2026-05-07 18:49 51.22682 7.05965 23929 ft 403 kts 246°
2026-05-07 18:49 51.21547 7.01866 23640 ft 402 kts 246°
2026-05-07 18:49 51.20476 6.98004 23338 ft 401 kts 246°
2026-05-07 18:49 51.19361 6.93991 23038 ft 399 kts 246°
2026-05-07 18:50 51.18232 6.89933 22747 ft 397 kts 246°
2026-05-07 18:50 51.17107 6.85899 22473 ft 395 kts 246°
2026-05-07 18:50 51.16005 6.81951 22193 ft 393 kts 246°
2026-05-07 18:50 51.14897 6.77988 22125 ft 389 kts 246°
2026-05-07 18:51 51.13788 6.74029 22081 ft 391 kts 246°
2026-05-07 18:51 51.12669 6.70036 22082 ft 394 kts 246°
2026-05-07 18:51 51.11562 6.66099 22084 ft 395 kts 246°
2026-05-07 18:51 51.10462 6.62194 22076 ft 395 kts 246°
2026-05-07 18:52 51.09165 6.58311 22071 ft 395 kts 238°
2026-05-07 18:52 51.07588 6.54720 21860 ft 397 kts 233°
2026-05-07 18:52 51.05781 6.51397 21457 ft 397 kts 226°
2026-05-07 18:52 51.03854 6.48344 21089 ft 393 kts 225°
2026-05-07 18:53 51.01889 6.45285 20722 ft 389 kts 225°
2026-05-07 18:53 51.00005 6.42314 20302 ft 383 kts 229°
2026-05-07 18:53 50.98497 6.38819 19697 ft 383 kts 246°
2026-05-07 18:53 50.97643 6.34874 19159 ft 382 kts 257°
2026-05-07 18:54 50.97258 6.30695 18660 ft 378 kts 263°
2026-05-07 18:54 50.96963 6.26587 18195 ft 376 kts 263°
2026-05-07 18:54 50.96659 6.22469 17711 ft 373 kts 263°
2026-05-07 18:54 50.96354 6.18427 17266 ft 369 kts 263°
2026-05-07 18:55 50.96047 6.14419 16831 ft 366 kts 263°
2026-05-07 18:55 50.95738 6.10436 16412 ft 362 kts 263°
2026-05-07 18:55 50.95427 6.06466 15999 ft 359 kts 262°
2026-05-07 18:55 50.95116 6.02548 15587 ft 356 kts 262°
2026-05-07 18:56 50.94831 5.98963 15215 ft 355 kts 262°
2026-05-07 18:56 50.94518 5.95064 14807 ft 354 kts 262°
2026-05-07 18:56 50.94209 5.91218 14398 ft 354 kts 262°
2026-05-07 18:56 50.93893 5.87319 13996 ft 351 kts 262°
2026-05-07 18:57 50.93585 5.83528 13569 ft 348 kts 262°
2026-05-07 18:57 50.93275 5.79728 13133 ft 345 kts 262°
2026-05-07 18:57 50.92969 5.75981 12727 ft 343 kts 262°
2026-05-07 18:57 50.92661 5.72241 12330 ft 342 kts 262°
2026-05-07 18:58 50.92354 5.68523 11966 ft 340 kts 262°
2026-05-07 18:58 50.92047 5.64822 11577 ft 336 kts 262°
2026-05-07 18:58 50.91742 5.61156 11178 ft 333 kts 262°
2026-05-07 18:58 50.91440 5.57541 10790 ft 330 kts 262°
2026-05-07 18:59 50.91137 5.53930 10404 ft 326 kts 262°
2026-05-07 18:59 50.90839 5.50391 10029 ft 319 kts 262°
2026-05-07 18:59 50.90559 5.47062 9801 ft 295 kts 262°
2026-05-07 18:59 50.90295 5.43948 9400 ft 280 kts 262°
2026-05-07 19:00 50.90040 5.40944 9007 ft 269 kts 262°
2026-05-07 19:00 50.89790 5.38017 8692 ft 265 kts 262°
2026-05-07 19:00 50.89546 5.35165 8374 ft 263 kts 262°
2026-05-07 19:00 50.89442 5.32281 7953 ft 262 kts 277°
2026-05-07 19:01 50.89831 5.29433 7525 ft 264 kts 285°
2026-05-07 19:01 50.90339 5.26663 7166 ft 263 kts 286°
2026-05-07 19:01 50.90856 5.23883 6804 ft 261 kts 285°
2026-05-07 19:01 50.91357 5.21111 6426 ft 260 kts 285°
2026-05-07 19:02 50.91835 5.18384 6095 ft 259 kts 285°
2026-05-07 19:02 50.92316 5.15584 6102 ft 265 kts 285°
2026-05-07 19:02 50.92788 5.12780 6086 ft 265 kts 284°
2026-05-07 19:02 50.93256 5.09971 6077 ft 261 kts 284°
2026-05-07 19:03 50.93717 5.07175 6073 ft 260 kts 284°
2026-05-07 19:03 50.94173 5.04395 5984 ft 260 kts 284°
2026-05-07 19:03 50.94621 5.01644 5717 ft 259 kts 284°
2026-05-07 19:03 50.95041 4.99056 5335 ft 259 kts 284°
2026-05-07 19:04 50.95492 4.96272 4926 ft 259 kts 284°
2026-05-07 19:04 50.95936 4.93527 4527 ft 258 kts 284°
2026-05-07 19:04 50.96382 4.90761 4148 ft 256 kts 284°
2026-05-07 19:04 50.96819 4.88053 3776 ft 254 kts 284°
2026-05-07 19:05 50.97258 4.85320 3397 ft 253 kts 284°
2026-05-07 19:05 50.97688 4.82635 3006 ft 252 kts 284°
2026-05-07 19:05 50.98120 4.79936 2627 ft 251 kts 284°
2026-05-07 19:05 50.98519 4.77291 2219 ft 244 kts 277°
2026-05-07 19:06 50.98295 4.74747 2014 ft 222 kts 246°
2026-05-07 19:06 50.97093 4.70555 2038 ft 203 kts 245°
2026-05-07 19:06 50.96524 4.68565 1993 ft 191 kts 245°
2026-05-07 19:07 50.95988 4.66704 2006 ft 183 kts 245°
2026-05-07 19:07 50.95448 4.64835 2007 ft 188 kts 245°
2026-05-07 19:07 50.94904 4.62949 2004 ft 189 kts 245°
2026-05-07 19:07 50.94353 4.61044 1882 ft 193 kts 244°
2026-05-07 19:08 50.93794 4.59134 1629 ft 190 kts 245°
2026-05-07 19:08 50.93251 4.57239 1309 ft 185 kts 245°
2026-05-07 19:08 50.92719 4.55420 1015 ft 181 kts 245°
2026-05-07 19:08 50.92200 4.53643 597 ft 170 kts 245°
2026-05-07 19:09 50.91736 4.51985 292 ft 159 kts 246°
2026-05-07 19:09 50.91291 4.50417 232 ft 152 kts 245°
2026-05-07 19:09 50.90881 4.48986 123 ft 135 kts 244°
2026-05-07 19:09 50.90530 4.47795 122 ft 108 kts 246°
2026-05-07 19:10 50.90283 4.46912 125 ft 47 kts 254°
2026-05-07 19:10 50.90353 4.46506 133 ft 28 kts 286°
2026-05-07 19:10 50.90340 4.46332 137 ft 11 kts 263°
2026-05-07 19:10 50.90355 4.46294 137 ft 0 kts 314°
2026-05-07 19:11 50.90374 4.46272 138 ft 4 kts 328°
2026-05-07 19:11 50.90401 4.46253 138 ft 4 kts 336°
2026-05-07 19:11 50.90417 4.46241 138 ft 0 kts 335°
2026-05-07 19:11 50.90418 4.46241 138 ft 0 kts 335°